Location: Observatoire
(46.1952°N, 5.3391°E)
Time: 22:54:43
(UTC+01:00)

Explorer 7 - All Passes

Search period start: 18 February 2026 00:00
Search period end: 28 February 2026 00:00
Orbit: 431 x 545 km, 50.2° (Epoch: 18 February)

Date Brightness Start Highest point End Pass type
(mag) Time Alt. Az. Time Alt. Az. Time Alt. Az.
18 Feb - 14:16:32 10° SSE 14:17:44 11° SE 14:18:57 10° ESE daylight
18 Feb - 15:52:01 10° SW 15:55:30 61° SSE 15:59:07 10° ENE daylight
18 Feb - 17:30:31 10° W 17:34:02 48° N 17:37:43 10° ENE daylight
18 Feb - 19:09:15 10° WNW 19:12:53 49° N 19:16:40 10° E visible
18 Feb - 20:47:40 10° WNW 20:51:27 63° SSW 20:55:22 10° SE visible
18 Feb - 22:27:22 10° WSW 22:29:22 14° SW 22:31:23 10° SSW night (unlit)
19 Feb - 13:51:11 10° SSE 13:52:04 11° SE 13:52:59 10° ESE daylight
19 Feb - 15:26:22 10° SW 15:29:49 59° SSE 15:33:25 10° ENE daylight
19 Feb - 17:04:50 10° W 17:08:20 48° N 17:11:59 10° ENE daylight
19 Feb - 18:43:35 10° WNW 18:47:10 48° N 18:50:55 10° E visible
19 Feb - 20:22:00 10° WNW 20:25:45 65° SSW 20:29:38 10° SE visible
19 Feb - 22:01:35 10° WSW 22:03:41 14° SW 22:05:49 10° SSW visible
20 Feb - 13:26:00 10° SE 13:26:24 10° SE 13:26:47 10° SE daylight
20 Feb - 15:00:41 10° SW 15:04:07 56° SSE 15:07:41 10° ENE daylight
20 Feb - 16:39:07 10° W 16:42:37 49° N 16:46:14 10° ENE daylight
20 Feb - 18:17:52 10° WNW 18:21:26 48° N 18:25:09 10° E daylight
20 Feb - 19:56:17 10° WNW 20:00:00 67° SSW 20:03:54 10° SE visible
20 Feb - 21:35:48 10° W 21:37:58 15° SW 21:40:10 10° S visible
21 Feb - 14:34:58 10° SW 14:38:23 54° SSE 14:41:54 10° ENE daylight
21 Feb - 16:13:23 10° W 16:16:51 49° N 16:20:27 10° ENE daylight
21 Feb - 17:52:09 10° WNW 17:55:41 47° N 17:59:21 10° E daylight
21 Feb - 19:30:33 10° WNW 19:34:16 69° SSW 19:38:07 10° SE visible
21 Feb - 21:09:58 10° W 21:12:13 15° SW 21:14:30 10° S visible
22 Feb - 14:09:15 10° SW 14:12:37 51° SSE 14:16:06 10° ENE daylight
22 Feb - 15:47:37 10° W 15:51:04 50° NNW 15:54:39 10° ENE daylight
22 Feb - 17:26:23 10° WNW 17:29:53 46° N 17:33:32 10° E daylight
22 Feb - 19:04:46 10° WNW 19:08:28 71° SSW 19:12:19 10° ESE visible
22 Feb - 20:44:07 10° W 20:46:27 16° SW 20:48:49 10° S visible
23 Feb - 13:43:29 10° SW 13:46:50 49° SSE 13:50:16 10° ENE daylight
23 Feb - 15:21:49 10° W 15:25:15 51° NNW 15:28:49 10° ENE daylight
23 Feb - 17:00:36 10° WNW 17:04:04 45° N 17:07:41 10° E daylight
23 Feb - 18:38:59 10° WNW 18:42:40 74° SSW 18:46:29 10° ESE visible
23 Feb - 20:18:15 10° W 20:20:38 16° SW 20:23:05 10° S visible
24 Feb - 13:17:41 10° SW 13:21:00 47° SSE 13:24:25 10° ENE daylight
24 Feb - 14:55:59 10° W 14:59:25 51° NNW 15:02:57 10° ENE daylight
24 Feb - 16:34:46 10° WNW 16:38:13 45° N 16:41:48 10° E daylight
24 Feb - 18:13:09 10° WNW 18:16:49 76° SSW 18:20:37 10° ESE daylight
24 Feb - 19:52:22 10° W 19:54:48 17° SW 19:57:19 10° S visible
25 Feb - 12:51:52 10° SW 12:55:10 45° SSE 12:58:32 10° ENE daylight
25 Feb - 14:30:08 10° W 14:33:33 52° NNW 14:37:05 10° ENE daylight
25 Feb - 16:08:55 10° WNW 16:12:20 44° N 16:15:53 10° E daylight
25 Feb - 17:47:19 10° WNW 17:50:57 79° SSW 17:54:43 10° ESE daylight
25 Feb - 19:26:27 10° W 19:28:57 17° SW 19:31:31 10° S visible
26 Feb - 12:26:01 10° SW 12:29:17 43° SSE 12:32:37 10° ENE daylight
26 Feb - 14:04:15 10° W 14:07:39 53° NNW 14:11:10 10° ENE daylight
26 Feb - 15:43:02 10° WNW 15:46:26 43° N 15:49:57 10° E daylight
26 Feb - 17:21:26 10° WNW 17:25:03 81° SSW 17:28:48 10° ESE daylight
26 Feb - 19:00:30 10° W 19:03:04 18° SW 19:05:41 10° S visible
27 Feb - 12:00:09 10° SW 12:03:23 41° SSE 12:06:41 10° ENE daylight
27 Feb - 13:38:20 10° W 13:41:44 54° NNW 13:45:13 10° ENE daylight
27 Feb - 15:17:08 10° WNW 15:20:30 43° N 15:24:00 10° E daylight
27 Feb - 16:55:31 10° WNW 16:59:07 84° SSW 17:02:50 10° ESE daylight
27 Feb - 18:34:33 10° W 18:37:09 18° SW 18:39:49 10° S daylight
